AAL212 KMEM-KBNA

Flight info

Callsign AAL212
Flight time 0h 40m
Altitude 27000
Route GOETZ7 DIYAB CHSNE CHSNE3
Aircraft A320/M-SDE3FGHIRWY/LB1

Departure

Time 2026-05-04 02:44
Airport Memphis International Airport (KMEM)

Arrival

Time 2026-05-04 03:25
Airport Nashville International Airport (KBNA)
Time Latitude Longitude Altitude Speed Heading
2026-05-04 02:16 35.04095 -89.98076 331 ft 0 kts 44°
2026-05-04 02:19 35.04090 -89.98082 331 ft 0 kts 44°
2026-05-04 02:25 35.04089 -89.98083 331 ft 2 kts 44°
2026-05-04 02:25 35.04072 -89.98106 327 ft 4 kts 62°
2026-05-04 02:25 35.04066 -89.98135 326 ft 4 kts 103°
2026-05-04 02:25 35.04072 -89.98153 331 ft 0 kts 133°
2026-05-04 02:33 35.04071 -89.98152 331 ft 1 kts 133°
2026-05-04 02:33 35.04068 -89.98148 331 ft 0 kts 133°
2026-05-04 02:34 35.04059 -89.98136 331 ft 3 kts 133°
2026-05-04 02:35 35.04039 -89.98110 331 ft 6 kts 133°
2026-05-04 02:35 35.04006 -89.98067 327 ft 8 kts 130°
2026-05-04 02:35 35.03986 -89.97997 328 ft 10 kts 98°
2026-05-04 02:35 35.03980 -89.97904 330 ft 12 kts 91°
2026-05-04 02:36 35.03982 -89.97799 330 ft 14 kts 88°
2026-05-04 02:36 35.04022 -89.97736 328 ft 10 kts 359°
2026-05-04 02:36 35.04103 -89.97738 326 ft 13 kts 358°
2026-05-04 02:36 35.04209 -89.97742 327 ft 17 kts 359°
2026-05-04 02:37 35.04332 -89.97745 328 ft 18 kts 359°
2026-05-04 02:37 35.04422 -89.97747 329 ft 9 kts 358°
2026-05-04 02:37 35.04427 -89.97747 329 ft 9 kts 359°
2026-05-04 02:38 35.04443 -89.97747 326 ft 9 kts 359°
2026-05-04 02:39 35.04450 -89.97747 329 ft 10 kts 359°
2026-05-04 02:39 35.04524 -89.97749 328 ft 12 kts 359°
2026-05-04 02:39 35.04613 -89.97750 328 ft 14 kts 359°
2026-05-04 02:40 35.04719 -89.97752 326 ft 16 kts 359°
2026-05-04 02:40 35.04854 -89.97754 326 ft 18 kts 359°
2026-05-04 02:40 35.04980 -89.97757 325 ft 16 kts 359°
2026-05-04 02:40 35.05094 -89.97760 326 ft 17 kts 358°
2026-05-04 02:41 35.05217 -89.97763 325 ft 19 kts 359°
2026-05-04 02:41 35.05334 -89.97771 328 ft 4 kts 353°
2026-05-04 02:42 35.05350 -89.97773 326 ft 8 kts 352°
2026-05-04 02:42 35.05416 -89.97779 328 ft 8 kts
2026-05-04 02:42 35.05446 -89.97696 323 ft 16 kts 90°
2026-05-04 02:43 35.05438 -89.97621 322 ft 5 kts 133°
2026-05-04 02:43 35.05416 -89.97614 322 ft 0 kts 173°
2026-05-04 02:43 35.05408 -89.97615 325 ft 3 kts 182°
2026-05-04 02:43 35.05193 -89.97617 323 ft 72 kts 180°
2026-05-04 02:44 35.04447 -89.97596 325 ft 139 kts 179°
2026-05-04 02:44 35.03357 -89.97575 663 ft 163 kts 180°
2026-05-04 02:44 35.02199 -89.97562 1363 ft 170 kts 181°
2026-05-04 02:44 35.01007 -89.97508 2035 ft 178 kts 182°
2026-05-04 02:45 34.99721 -89.97439 2622 ft 194 kts 182°
2026-05-04 02:45 34.98302 -89.97252 3158 ft 221 kts 169°
2026-05-04 02:45 34.96767 -89.96550 3669 ft 250 kts 163°
2026-05-04 02:45 34.95068 -89.95723 4176 ft 275 kts 159°
2026-05-04 02:46 34.93565 -89.94240 4674 ft 287 kts 126°
2026-05-04 02:46 34.92904 -89.91950 5189 ft 291 kts 94°
2026-05-04 02:46 34.92780 -89.89489 5686 ft 291 kts 91°
2026-05-04 02:46 34.92678 -89.87026 6189 ft 291 kts 90°
2026-05-04 02:47 34.92845 -89.84572 6683 ft 290 kts 76°
2026-05-04 02:47 34.93471 -89.82251 7164 ft 288 kts 63°
2026-05-04 02:47 34.94446 -89.80138 7649 ft 287 kts 57°
2026-05-04 02:47 34.95450 -89.78065 8125 ft 288 kts 57°
2026-05-04 02:48 34.96460 -89.75961 8634 ft 289 kts 57°
2026-05-04 02:48 34.97471 -89.73841 9144 ft 290 kts 58°
2026-05-04 02:48 34.98479 -89.71707 9662 ft 291 kts 58°
2026-05-04 02:48 34.99480 -89.69568 10160 ft 292 kts 58°
2026-05-04 02:49 35.00492 -89.67403 10643 ft 296 kts 58°
2026-05-04 02:49 35.01170 -89.65952 10974 ft 297 kts 58°
2026-05-04 02:49 35.02197 -89.63760 11456 ft 299 kts 58°
2026-05-04 02:49 35.03238 -89.61548 11955 ft 302 kts 57°
2026-05-04 02:50 35.04286 -89.59320 12459 ft 304 kts 57°
2026-05-04 02:50 35.05688 -89.56334 13142 ft 308 kts 57°
2026-05-04 02:50 35.06754 -89.54059 13674 ft 310 kts 57°
2026-05-04 02:50 35.07831 -89.51760 14164 ft 313 kts 57°
2026-05-04 02:51 35.08548 -89.50227 14479 ft 315 kts 57°
2026-05-04 02:51 35.09649 -89.47873 14966 ft 326 kts 57°
2026-05-04 02:51 35.10799 -89.45419 15459 ft 340 kts 57°
2026-05-04 02:51 35.11998 -89.42862 15960 ft 353 kts 56°
2026-05-04 02:52 35.13235 -89.40223 16462 ft 361 kts 56°
2026-05-04 02:52 35.14482 -89.37556 16983 ft 365 kts 56°
2026-05-04 02:52 35.15744 -89.34839 17504 ft 369 kts 56°
2026-05-04 02:52 35.17013 -89.32095 18036 ft 372 kts 56°
2026-05-04 02:53 35.18293 -89.29330 18547 ft 376 kts 56°
2026-05-04 02:53 35.19572 -89.26575 19011 ft 379 kts 56°
2026-05-04 02:53 35.20872 -89.23762 19482 ft 383 kts 57°
2026-05-04 02:53 35.21954 -89.20767 19980 ft 391 kts 67°
2026-05-04 02:54 35.22779 -89.17597 20478 ft 395 kts 69°
2026-05-04 02:54 35.23603 -89.14401 20980 ft 398 kts 69°
2026-05-04 02:54 35.24469 -89.11179 21495 ft 400 kts 65°
2026-05-04 02:54 35.25577 -89.08063 22014 ft 404 kts 62°
2026-05-04 02:55 35.27857 -89.01799 23073 ft 412 kts 62°
2026-05-04 02:55 35.29021 -88.98598 23618 ft 416 kts 62°
2026-05-04 02:55 35.30196 -88.95356 24081 ft 421 kts 62°
2026-05-04 02:56 35.31392 -88.92056 24484 ft 427 kts 62°
2026-05-04 02:56 35.32605 -88.88708 24861 ft 434 kts 62°
2026-05-04 02:56 35.33836 -88.85306 25256 ft 439 kts 62°
2026-05-04 02:56 35.35079 -88.81865 25645 ft 444 kts 61°
2026-05-04 02:57 35.36331 -88.78394 26037 ft 448 kts 61°
2026-05-04 02:57 35.37582 -88.74923 26432 ft 452 kts 61°
2026-05-04 02:57 35.38856 -88.71387 26838 ft 456 kts 61°
2026-05-04 02:57 35.40145 -88.67800 27049 ft 465 kts 61°
2026-05-04 02:58 35.41466 -88.64131 27090 ft 476 kts 61°
2026-05-04 02:58 35.42817 -88.60385 27089 ft 483 kts 61°
2026-05-04 02:58 35.44173 -88.56608 27089 ft 485 kts 62°
2026-05-04 02:58 35.45528 -88.52824 27088 ft 485 kts 62°
2026-05-04 02:59 35.46884 -88.49028 27088 ft 485 kts 62°
2026-05-04 02:59 35.48239 -88.45238 27096 ft 485 kts 61°
2026-05-04 02:59 35.49592 -88.41446 27107 ft 485 kts 62°
2026-05-04 02:59 35.50942 -88.37653 27088 ft 485 kts 62°
2026-05-04 03:00 35.52274 -88.33905 27088 ft 486 kts 62°
2026-05-04 03:00 35.53625 -88.30099 27091 ft 486 kts 62°
2026-05-04 03:00 35.54973 -88.26300 27090 ft 486 kts 62°
2026-05-04 03:00 35.56312 -88.22526 27090 ft 486 kts 62°
2026-05-04 03:01 35.57662 -88.18728 27093 ft 486 kts 62°
2026-05-04 03:01 35.59014 -88.14919 27089 ft 486 kts 62°
2026-05-04 03:01 35.60355 -88.11118 27050 ft 484 kts 62°
2026-05-04 03:01 35.61669 -88.07366 26161 ft 475 kts 62°
2026-05-04 03:02 35.62934 -88.03737 25908 ft 450 kts 62°
2026-05-04 03:02 35.64149 -88.00260 25491 ft 437 kts 62°
2026-05-04 03:02 35.65351 -87.96847 25082 ft 432 kts 61°
2026-05-04 03:02 35.66527 -87.93524 24684 ft 428 kts 62°
2026-05-04 03:03 35.67705 -87.90191 24293 ft 425 kts 62°
2026-05-04 03:03 35.68872 -87.86881 23903 ft 422 kts 62°
2026-05-04 03:03 35.70032 -87.83577 23489 ft 420 kts 62°
2026-05-04 03:03 35.71183 -87.80288 23023 ft 416 kts 62°
2026-05-04 03:04 35.72322 -87.77029 22562 ft 413 kts 62°
2026-05-04 03:04 35.73452 -87.73795 22130 ft 410 kts 62°
2026-05-04 03:04 35.74575 -87.70581 21702 ft 407 kts 62°
2026-05-04 03:04 35.75691 -87.67383 21255 ft 405 kts 62°
2026-05-04 03:05 35.76796 -87.64205 20822 ft 401 kts 63°
2026-05-04 03:05 35.77860 -87.61129 20397 ft 392 kts 63°
2026-05-04 03:05 35.78917 -87.58069 19979 ft 384 kts 63°
2026-05-04 03:05 35.79951 -87.55074 19564 ft 377 kts 63°
2026-05-04 03:06 35.80968 -87.52138 19157 ft 370 kts 63°
2026-05-04 03:06 35.81967 -87.49254 18758 ft 364 kts 63°
2026-05-04 03:06 35.82954 -87.46410 18402 ft 357 kts 63°
2026-05-04 03:06 35.83931 -87.43631 17998 ft 350 kts 63°
2026-05-04 03:07 35.84897 -87.40902 17599 ft 345 kts 62°
2026-05-04 03:07 35.85849 -87.38213 17203 ft 340 kts 62°
2026-05-04 03:07 35.86791 -87.35548 16816 ft 337 kts 62°
2026-05-04 03:07 35.87709 -87.32944 16435 ft 335 kts 62°
2026-05-04 03:08 35.88632 -87.30316 16064 ft 333 kts 62°
2026-05-04 03:08 35.89550 -87.27700 15669 ft 332 kts 62°
2026-05-04 03:08 35.90464 -87.25089 15277 ft 331 kts 62°
2026-05-04 03:08 35.91372 -87.22491 14882 ft 329 kts 62°
2026-05-04 03:09 35.92276 -87.19901 14494 ft 328 kts 62°
2026-05-04 03:09 35.93175 -87.17328 14111 ft 327 kts 62°
2026-05-04 03:09 35.94064 -87.14794 13714 ft 325 kts 62°
2026-05-04 03:09 35.94956 -87.12243 13297 ft 321 kts 62°
2026-05-04 03:10 35.95830 -87.09727 12876 ft 316 kts 62°
2026-05-04 03:10 35.96690 -87.07250 12459 ft 312 kts 62°
2026-05-04 03:10 35.97536 -87.04823 12060 ft 310 kts 62°
2026-05-04 03:10 35.98376 -87.02412 11658 ft 307 kts 62°
2026-05-04 03:11 35.99213 -87.00002 11264 ft 306 kts 63°
2026-05-04 03:11 36.00044 -86.97611 10869 ft 304 kts 63°
2026-05-04 03:11 36.00862 -86.95257 10495 ft 302 kts 63°
2026-05-04 03:11 36.01681 -86.92897 10120 ft 300 kts 63°
2026-05-04 03:12 36.02493 -86.90554 9966 ft 299 kts 63°
2026-05-04 03:12 36.03305 -86.88207 9980 ft 300 kts 63°
2026-05-04 03:12 36.04122 -86.85850 9983 ft 300 kts 63°
2026-05-04 03:12 36.05129 -86.83642 9877 ft 292 kts 47°
2026-05-04 03:13 36.06536 -86.81942 9552 ft 278 kts 31°
2026-05-04 03:13 36.08175 -86.80847 9269 ft 263 kts 16°
2026-05-04 03:13 36.09856 -86.80186 8998 ft 253 kts 13°
2026-05-04 03:13 36.11503 -86.79549 8712 ft 245 kts 13°
2026-05-04 03:14 36.13106 -86.78921 8433 ft 238 kts 13°
2026-05-04 03:14 36.14671 -86.78308 8159 ft 236 kts 13°
2026-05-04 03:14 36.16234 -86.77699 7889 ft 235 kts 13°
2026-05-04 03:14 36.17796 -86.77110 7617 ft 235 kts 12°
2026-05-04 03:15 36.19362 -86.76531 7323 ft 235 kts 12°
2026-05-04 03:15 36.20929 -86.75951 7068 ft 235 kts 12°
2026-05-04 03:15 36.22354 -86.75425 6827 ft 236 kts 11°
2026-05-04 03:15 36.23927 -86.74843 6567 ft 236 kts 11°
2026-05-04 03:16 36.25502 -86.74259 6295 ft 237 kts 11°
2026-05-04 03:16 36.27078 -86.73673 6014 ft 236 kts 12°
2026-05-04 03:16 36.28650 -86.73088 5739 ft 235 kts 11°
2026-05-04 03:16 36.30214 -86.72505 5467 ft 235 kts 12°
2026-05-04 03:17 36.31774 -86.71924 5192 ft 234 kts 11°
2026-05-04 03:17 36.33326 -86.71343 4920 ft 233 kts 12°
2026-05-04 03:17 36.34877 -86.70761 4636 ft 233 kts 12°
2026-05-04 03:17 36.36355 -86.69908 4364 ft 240 kts 37°
2026-05-04 03:18 36.37296 -86.68234 4195 ft 245 kts 71°
2026-05-04 03:18 36.37425 -86.66151 4068 ft 243 kts 100°
2026-05-04 03:18 36.37115 -86.64090 3998 ft 242 kts 105°
2026-05-04 03:18 36.36762 -86.62070 4005 ft 234 kts 105°
2026-05-04 03:19 36.36371 -86.60158 4003 ft 225 kts 117°
2026-05-04 03:19 36.35371 -86.58807 4011 ft 209 kts 162°
2026-05-04 03:19 36.34016 -86.58726 4013 ft 192 kts 208°
2026-05-04 03:19 36.33044 -86.59773 4104 ft 186 kts 231°
2026-05-04 03:20 36.32017 -86.60786 4326 ft 195 kts 211°
2026-05-04 03:20 36.30763 -86.61280 4260 ft 191 kts 197°
2026-05-04 03:20 36.29478 -86.61586 4153 ft 185 kts 198°
2026-05-04 03:20 36.28257 -86.62089 3878 ft 184 kts 205°
2026-05-04 03:21 36.27070 -86.62605 3482 ft 179 kts 203°
2026-05-04 03:21 36.25915 -86.63077 3054 ft 170 kts 202°
2026-05-04 03:21 36.24843 -86.63502 2849 ft 151 kts 201°
2026-05-04 03:21 36.23874 -86.63885 2681 ft 143 kts 201°
2026-05-04 03:22 36.22942 -86.64254 2504 ft 139 kts 202°
2026-05-04 03:22 36.22029 -86.64614 2322 ft 137 kts 202°
2026-05-04 03:22 36.21139 -86.64964 2143 ft 132 kts 202°
2026-05-04 03:22 36.20270 -86.65306 1971 ft 131 kts 201°
2026-05-04 03:23 36.19411 -86.65644 1784 ft 128 kts 201°
2026-05-04 03:23 36.18567 -86.65977 1612 ft 130 kts 200°
2026-05-04 03:23 36.17736 -86.66304 1437 ft 134 kts 199°
2026-05-04 03:23 36.16833 -86.66659 1263 ft 137 kts 198°
2026-05-04 03:24 36.15921 -86.67022 1071 ft 139 kts 197°
2026-05-04 03:24 36.14998 -86.67387 876 ft 138 kts 197°
2026-05-04 03:24 36.14074 -86.67743 681 ft 139 kts 198°
2026-05-04 03:24 36.13170 -86.68097 583 ft 126 kts 197°
2026-05-04 03:25 36.12495 -86.68361 574 ft 72 kts 197°
2026-05-04 03:25 36.12239 -86.68463 574 ft 23 kts 198°
2026-05-04 03:25 36.12159 -86.68465 573 ft 9 kts 122°
2026-05-04 03:25 36.12142 -86.68389 574 ft 10 kts 106°
2026-05-04 03:26 36.12129 -86.68337 575 ft 0 kts 107°
2026-05-04 03:26 36.12129 -86.68336 575 ft 1 kts 107°
2026-05-04 03:26 36.12152 -86.68288 575 ft 14 kts 22°